Location: Unspecified
(47.9110°N, 14.3980°E)
Time: 08:23:27
(UTC+00:00)

Cosmos 1605 Rocket - Pass Details

Date: 06 August 2020
Orbit: 946 x 1005 km, 82.9° (Epoch: 27 September)

Event Time Altitude Azimuth Distance (km) Brightness Sun altitude
Exits shadow 21:16:11 19° 205° (SSW) 2,088 5.4 -21.0°
Maximum altitude 21:20:36 62° 282° (WNW) 1,065 4.3 -21.4°
Drops below altitude 10° 21:26:40 10° 3° (N) 2,681 7.1 -21.8°
Sets 21:29:12 0° 7° (N) 3,628 7.9 -22.0°
